Tracking 29018 objects as of 15-Jun-2024
HD Live streaming from Space Station
objects crossing your sky now

STARLINK-6307

Track STARLINK-6307 now!
10-day predictions
STARLINK-6307 is classified as:


NORAD ID: 56529
Int'l Code: 2023-065AC
Perigee: 565.2 km
Apogee: 567.2 km
Inclination: 43.0 °
Period: 95.8 minutes
Semi major axis: 6937 km
RCS: Unknown
Launch date: May 14, 2023
Source: United States (US)
Launch site: AIR FORCE EASTERN TEST RANGE (AFETR)
Your satellite tracking list
Your tracking list is empty




NASA's NSSDC Master Catalog

Two Line Element Set (TLE):
1 56529U 23065AC  24166.90327460 -.00000184  00000-0  14373-5 0  9990
2 56529  43.0037  36.0206 0001447 266.5556  93.5121 15.02535404 61584
Source of the keplerian elements: AFSPC